Time,TemperatureF,DewpointF,PressureIn,WindDirection,WindDirectionDegrees,WindSpeedMPH,WindSpeedGustMPH,Humidity,HourlyPrecipIn,Conditions,Clouds,dailyrainin,SolarRadiationWatts/m^2,SoftwareType,DateUTC
2013-05-16 00:02:00,54.0,43.0,-100.00,SSW,201,0.0,0.0,65,0.00,,,0.00,0.000000,,2013-05-16 05:02:00,
2013-05-16 00:32:00,51.0,43.0,-100.00,SE,130,0.0,0.0,75,0.00,,,0.00,0.000000,,2013-05-16 05:32:00,
2013-05-16 01:01:00,51.0,43.0,-100.00,SE,130,0.0,0.0,75,0.00,,,0.00,0.000000,,2013-05-16 06:01:00,
2013-05-16 01:43:00,49.0,43.0,-100.00,SSE,160,0.0,2.0,80,-99.99,,,-99.99,0.000000,,2013-05-16 06:43:00,
2013-05-16 01:53:00,49.0,43.0,-100.00,SSE,160,0.0,2.0,80,-99.99,,,-99.99,0.000000,,2013-05-16 06:53:00,
2013-05-16 02:34:00,49.0,44.0,-100.00,SE,144,0.0,0.0,83,-99.99,,,0.00,0.000000,,2013-05-16 07:34:00,
2013-05-16 03:03:00,49.0,44.0,-100.00,SE,144,0.0,0.0,83,-99.99,,,0.00,0.000000,,2013-05-16 08:03:00,
2013-05-16 03:45:00,48.0,44.0,-100.00,East,84,0.0,0.0,87,0.00,,,0.00,0.000000,,2013-05-16 08:45:00,
2013-05-16 03:55:00,48.0,44.0,-100.00,East,84,0.0,0.0,87,0.00,,,0.00,0.000000,,2013-05-16 08:55:00,
2013-05-16 04:12:00,48.0,43.0,-100.00,SSE,168,2.0,6.0,84,-99.99,,,0.00,0.000000,,2013-05-16 09:12:00,
2013-05-16 04:45:00,48.0,43.0,-100.00,SSE,168,2.0,6.0,84,-99.99,,,0.00,0.000000,,2013-05-16 09:45:00,
2013-05-16 04:55:00,48.0,43.0,-100.00,SSE,168,2.0,6.0,84,-99.99,,,0.00,0.000000,,2013-05-16 09:55:00,
2013-05-16 05:12:00,46.0,43.0,-100.00,SSE,149,0.0,3.0,88,0.00,,,0.00,0.000000,,2013-05-16 10:12:00,
2013-05-16 05:36:00,46.0,43.0,-100.00,SSE,149,0.0,3.0,88,0.00,,,0.00,0.000000,,2013-05-16 10:36:00,
2013-05-16 05:45:00,46.0,43.0,-100.00,SSE,149,0.0,3.0,88,0.00,,,0.00,0.000000,,2013-05-16 10:45:00,
2013-05-16 05:56:00,46.0,43.0,-100.00,SSE,149,0.0,3.0,88,0.00,,,0.00,0.000000,,2013-05-16 10:56:00,
2013-05-16 06:05:00,46.0,43.0,-100.00,SSE,149,0.0,3.0,88,0.00,,,0.00,0.000000,,2013-05-16 11:05:00,
2013-05-16 06:12:00,46.0,43.0,-100.00,SE,146,0.0,0.0,90,0.00,,,0.00,15.000000,,2013-05-16 11:12:00,
2013-05-16 06:35:00,46.0,43.0,-100.00,SE,146,0.0,0.0,90,0.00,,,0.00,15.000000,,2013-05-16 11:35:00,
2013-05-16 06:46:00,46.0,43.0,-100.00,SE,146,0.0,0.0,90,0.00,,,0.00,15.000000,,2013-05-16 11:46:00,
2013-05-16 06:57:00,46.0,43.0,-100.00,SE,146,0.0,0.0,90,0.00,,,0.00,15.000000,,2013-05-16 11:57:00,
2013-05-16 07:06:00,46.0,43.0,-100.00,SE,146,0.0,0.0,90,0.00,,,0.00,15.000000,,2013-05-16 12:06:00,
2013-05-16 07:12:00,57.0,50.0,-100.00,NE,47,1.0,3.0,78,0.00,,,0.00,133.000000,,2013-05-16 12:12:00,
2013-05-16 07:35:00,57.0,50.0,-100.00,NE,47,1.0,3.0,78,0.00,,,0.00,133.000000,,2013-05-16 12:35:00,
2013-05-16 07:45:00,57.0,50.0,-100.00,NE,47,1.0,3.0,78,0.00,,,0.00,133.000000,,2013-05-16 12:45:00,
2013-05-16 07:53:00,57.0,50.0,-100.00,NE,47,1.0,3.0,78,0.00,,,0.00,133.000000,,2013-05-16 12:53:00,
2013-05-16 08:04:00,57.0,50.0,-100.00,NE,47,1.0,3.0,78,0.00,,,0.00,133.000000,,2013-05-16 13:04:00,
2013-05-16 08:12:00,66.0,51.0,-100.00,WNW,294,2.0,4.0,58,0.00,,,-99.99,299.000000,,2013-05-16 13:12:00,
2013-05-16 08:44:00,66.0,51.0,-100.00,WNW,294,2.0,4.0,58,0.00,,,-99.99,299.000000,,2013-05-16 13:44:00,
2013-05-16 08:55:00,66.0,51.0,-100.00,WNW,294,2.0,4.0,58,0.00,,,-99.99,299.000000,,2013-05-16 13:55:00,
2013-05-16 09:05:00,66.0,51.0,-100.00,WNW,294,2.0,4.0,58,0.00,,,-99.99,299.000000,,2013-05-16 14:05:00,
2013-05-16 09:12:00,73.0,49.0,-100.00,NW,312,1.0,4.0,42,0.00,,,0.00,469.000000,,2013-05-16 14:12:00,
2013-05-16 09:47:00,73.0,49.0,-100.00,NW,312,1.0,4.0,42,0.00,,,0.00,469.000000,,2013-05-16 14:47:00,
2013-05-16 09:56:00,73.0,49.0,-100.00,NW,312,1.0,4.0,42,0.00,,,0.00,469.000000,,2013-05-16 14:56:00,
2013-05-16 10:08:00,73.0,49.0,-100.00,NW,312,1.0,4.0,42,0.00,,,0.00,469.000000,,2013-05-16 15:08:00,
2013-05-16 10:12:00,75.0,40.0,-100.00,ENE,61,6.0,9.0,28,0.00,,,0.00,656.000000,,2013-05-16 15:12:00,
2013-05-16 10:40:00,75.0,40.0,-100.00,ENE,61,6.0,9.0,28,0.00,,,0.00,656.000000,,2013-05-16 15:40:00,
2013-05-16 10:50:00,75.0,40.0,-100.00,ENE,61,6.0,9.0,28,0.00,,,0.00,656.000000,,2013-05-16 15:50:00,
2013-05-16 11:00:00,75.0,40.0,-100.00,ENE,61,6.0,9.0,28,0.00,,,0.00,656.000000,,2013-05-16 16:00:00,
2013-05-16 11:09:00,75.0,40.0,-100.00,ENE,61,6.0,9.0,28,0.00,,,0.00,656.000000,,2013-05-16 16:09:00,
2013-05-16 11:12:00,77.0,41.0,-100.00,ESE,103,7.0,12.0,28,0.00,,,0.00,776.000000,,2013-05-16 16:12:00,
2013-05-16 11:51:00,77.0,41.0,-100.00,ESE,103,7.0,12.0,28,0.00,,,0.00,776.000000,,2013-05-16 16:51:00,
2013-05-16 12:01:00,77.0,41.0,-100.00,ESE,103,7.0,12.0,28,0.00,,,0.00,776.000000,,2013-05-16 17:01:00,
2013-05-16 12:10:00,77.0,41.0,-100.00,ESE,103,7.0,12.0,28,0.00,,,0.00,776.000000,,2013-05-16 17:10:00,
2013-05-16 12:12:00,79.0,43.0,-100.00,ENE,70,3.0,10.0,28,0.00,,,0.00,880.000000,,2013-05-16 17:12:00,
2013-05-16 12:50:00,-999.0,-99.9,-100.00,ENE,70,3.0,10.0,28,0.00,,,0.00,880.000000,,2013-05-16 17:50:00,
2013-05-16 13:00:00,-999.0,-99.9,-100.00,ENE,70,3.0,10.0,28,0.00,,,0.00,880.000000,,2013-05-16 18:00:00,
2013-05-16 13:10:00,79.0,43.0,-100.00,ENE,70,3.0,10.0,28,0.00,,,0.00,880.000000,,2013-05-16 18:10:00,
2013-05-16 13:12:00,80.0,43.0,-100.00,East,94,6.0,14.0,27,0.00,,,0.00,937.000000,,2013-05-16 18:12:00,
2013-05-16 13:41:00,-999.0,-99.9,-100.00,East,94,6.0,14.0,27,0.00,,,0.00,937.000000,,2013-05-16 18:41:00,
2013-05-16 13:50:00,-999.0,-99.9,-100.00,East,94,6.0,14.0,27,0.00,,,0.00,937.000000,,2013-05-16 18:50:00,
2013-05-16 14:00:00,-999.0,-99.9,-100.00,East,94,6.0,14.0,27,0.00,,,0.00,937.000000,,2013-05-16 19:00:00,
2013-05-16 14:10:00,80.0,43.0,-100.00,East,94,6.0,14.0,27,0.00,,,0.00,937.000000,,2013-05-16 19:10:00,
2013-05-16 14:12:00,81.0,-99.9,-100.00,North,5,3.0,10.0,27,0.00,,,0.00,763.000000,,2013-05-16 19:12:00,
2013-05-16 14:51:00,-999.0,-99.9,-100.00,North,5,3.0,10.0,27,0.00,,,0.00,763.000000,,2013-05-16 19:51:00,
2013-05-16 15:01:00,-999.0,-99.9,-100.00,North,5,3.0,10.0,27,0.00,,,0.00,763.000000,,2013-05-16 20:01:00,
2013-05-16 15:10:00,-999.0,-99.9,-100.00,North,5,3.0,10.0,27,0.00,,,0.00,763.000000,,2013-05-16 20:10:00,
2013-05-16 15:12:00,80.0,-99.9,-100.00,ESE,105,7.0,12.0,26,0.00,,,0.00,519.000000,,2013-05-16 20:12:00,
2013-05-16 15:51:00,80.0,42.0,-100.00,ESE,105,7.0,12.0,26,0.00,,,0.00,519.000000,,2013-05-16 20:51:00,
2013-05-16 16:00:00,80.0,-99.9,-100.00,ESE,105,7.0,12.0,26,0.00,,,0.00,519.000000,,2013-05-16 21:00:00,
2013-05-16 16:10:00,80.0,-99.9,-100.00,ESE,105,7.0,12.0,26,0.00,,,0.00,519.000000,,2013-05-16 21:10:00,
2013-05-16 16:12:00,76.0,46.0,-100.00,ENE,73,9.0,17.0,35,0.00,,,0.00,325.000000,,2013-05-16 21:12:00,
2013-05-16 17:00:00,-999.0,-99.9,-100.00,ENE,73,9.0,17.0,35,0.00,,,0.00,325.000000,,2013-05-16 22:00:00,
2013-05-16 17:08:00,76.0,46.0,-100.00,ENE,73,9.0,17.0,35,0.00,,,0.00,325.000000,,2013-05-16 22:08:00,
2013-05-16 17:12:00,75.0,45.0,-100.00,ESE,103,9.0,19.0,35,0.00,,,0.00,492.000000,,2013-05-16 22:12:00,
2013-05-16 17:40:00,75.0,45.0,-100.00,ESE,103,9.0,19.0,35,0.00,,,0.00,492.000000,,2013-05-16 22:40:00,
2013-05-16 17:51:00,75.0,45.0,-100.00,ESE,103,9.0,19.0,35,0.00,,,0.00,492.000000,,2013-05-16 22:51:00,
2013-05-16 18:01:00,75.0,45.0,-100.00,ESE,103,9.0,19.0,35,0.00,,,0.00,492.000000,,2013-05-16 23:01:00,
2013-05-16 18:06:00,75.0,45.0,-100.00,ESE,103,9.0,19.0,35,0.00,,,0.00,492.000000,,2013-05-16 23:06:00,
2013-05-16 18:12:00,72.0,45.0,-100.00,ESE,107,8.0,16.0,38,0.00,,,0.00,216.000000,,2013-05-16 23:12:00,
2013-05-16 18:35:00,72.0,45.0,-100.00,ESE,107,8.0,16.0,38,0.00,,,0.00,216.000000,,2013-05-16 23:35:00,
2013-05-16 18:45:00,72.0,45.0,-100.00,ESE,107,8.0,16.0,38,0.00,,,0.00,216.000000,,2013-05-16 23:45:00,
2013-05-16 18:54:00,72.0,45.0,-100.00,ESE,107,8.0,16.0,38,0.00,,,0.00,216.000000,,2013-05-16 23:54:00,
2013-05-16 19:02:00,72.0,45.0,-100.00,ESE,107,8.0,16.0,38,0.00,,,0.00,216.000000,,2013-05-17 00:02:00,
2013-05-16 19:12:00,69.0,41.0,-100.00,East,90,6.0,14.0,36,0.00,,,-99.99,134.000000,,2013-05-17 00:12:00,
2013-05-16 19:44:00,69.0,41.0,-100.00,East,90,6.0,14.0,36,0.00,,,-99.99,134.000000,,2013-05-17 00:44:00,
2013-05-16 19:53:00,69.0,41.0,-100.00,East,90,6.0,14.0,36,0.00,,,-99.99,134.000000,,2013-05-17 00:53:00,
2013-05-16 20:03:00,69.0,41.0,-100.00,East,90,6.0,14.0,36,0.00,,,-99.99,134.000000,,2013-05-17 01:03:00,
2013-05-16 20:44:00,65.0,41.0,-100.00,East,89,5.0,10.0,41,0.00,,,0.00,30.000000,,2013-05-17 01:44:00,
2013-05-16 20:52:00,65.0,41.0,-100.00,East,89,5.0,10.0,41,0.00,,,0.00,30.000000,,2013-05-17 01:52:00,
2013-05-16 21:02:00,65.0,41.0,-100.00,East,89,5.0,10.0,41,0.00,,,0.00,30.000000,,2013-05-17 02:02:00,
2013-05-16 21:11:00,65.0,41.0,-100.00,East,89,5.0,10.0,41,0.00,,,0.00,30.000000,,2013-05-17 02:11:00,
2013-05-16 21:33:00,62.0,37.0,-100.00,East,92,5.0,16.0,40,0.00,,,0.00,0.000000,,2013-05-17 02:33:00,
2013-05-16 21:42:00,62.0,37.0,-100.00,East,92,5.0,16.0,40,0.00,,,0.00,0.000000,,2013-05-17 02:42:00,
2013-05-16 21:53:00,62.0,37.0,-100.00,East,92,5.0,16.0,40,0.00,,,0.00,0.000000,,2013-05-17 02:53:00,
2013-05-16 22:02:00,62.0,37.0,-100.00,East,92,5.0,16.0,40,0.00,,,0.00,0.000000,,2013-05-17 03:02:00,
2013-05-16 22:11:00,62.0,37.0,-100.00,East,92,5.0,16.0,40,0.00,,,0.00,0.000000,,2013-05-17 03:11:00,
2013-05-16 22:12:00,60.0,32.0,-100.00,East,84,5.0,14.0,35,0.00,,,0.00,0.000000,,2013-05-17 03:12:00,
2013-05-16 22:34:00,60.0,32.0,-100.00,East,84,5.0,14.0,35,0.00,,,0.00,0.000000,,2013-05-17 03:34:00,
2013-05-16 22:43:00,60.0,32.0,-100.00,East,84,5.0,14.0,35,0.00,,,0.00,0.000000,,2013-05-17 03:43:00,
2013-05-16 22:53:00,60.0,32.0,-100.00,East,84,5.0,14.0,35,0.00,,,0.00,0.000000,,2013-05-17 03:53:00,
2013-05-16 23:02:00,60.0,32.0,-100.00,East,84,5.0,14.0,35,0.00,,,0.00,0.000000,,2013-05-17 04:02:00,
2013-05-16 23:12:00,59.0,37.0,-100.00,ENE,67,7.0,13.0,43,0.00,,,-99.99,0.000000,,2013-05-17 04:12:00,
2013-05-16 23:34:00,59.0,37.0,-100.00,ENE,67,7.0,13.0,43,0.00,,,-99.99,0.000000,,2013-05-17 04:34:00,
2013-05-16 23:43:00,59.0,37.0,-100.00,ENE,67,7.0,13.0,43,0.00,,,-99.99,0.000000,,2013-05-17 04:43:00,
2013-05-16 23:53:00,59.0,37.0,-100.00,ENE,67,7.0,13.0,43,0.00,,,-99.99,0.000000,,2013-05-17 04:53:00,